Regional Weather Roundup
Issued by NWS

Home | Current Version | Previous Version | Text Only | Print | Product List | Glossary On
Versions: 1 2 3 4 5 6 7 8 9 10 11 12 13 14 15 16 17 18 19 20 21 22 23 24 25 26 27 28 29 30 31 32 33 34 35 36 37 38 39 40 41 42 43 44 45 46 47 48 49 50
736
ASUS43 KTOP 041759
RWRKS

WEATHER ROUNDUP FOR KANSAS
NATIONAL WEATHER SERVICE GOODLAND KS
100 PM CDT WED MAY 04 2016

NOTE:  "FAIR" INDICATES FEW OR NO CLOUDS BELOW 12,000 FEET WITH NO
SIGNIFICANT WEATHER AND/OR OBSTRUCTIONS TO VISIBILITY.

KSZ001>006-013>018-027>032-041>047-041900-
NORTHWEST KANSAS

CITY           SKY/WX    TMP DP  RH WIND       PRES   REMARKS
GOODLAND       SUNNY     72  40  31 VRB5      30.18F
6HR MIN TEMP:  42; 6HR MAX TEMP:  73;

HAYS           SUNNY     70  43  37 N15G22    30.13F
HILL CITY      SUNNY     72  38  29 VRB5G21   30.14F
6HR MIN TEMP:  49; 6HR MAX TEMP:  73;

RUSSELL        SUNNY     70  39  32 N18G25    30.10F
6HR MIN TEMP:  46; 6HR MAX TEMP:  70;

$$

KSZ061>065-074>080-084>089-041900-
SOUTHWEST KANSAS

CITY           SKY/WX    TMP DP  RH WIND       PRES   REMARKS
DODGE CITY     SUNNY     72  43  35 N14G21    30.14F
6HR MIN TEMP:  46; 6HR MAX TEMP:  72;

ELKHART          N/A     73  40  30 N9          N/A
GARDEN CITY    SUNNY     73  43  33 N10G21    30.15F
6HR MIN TEMP:  42; 6HR MAX TEMP:  74;

GREAT BEND     SUNNY     70  45  40 N14       30.12S
LIBERAL        SUNNY     73  43  33 N7G17     30.18F
$$

KSZ066>073-081>083-090>101-041900-
SOUTHEAST KANSAS

CITY           SKY/WX    TMP DP  RH WIND       PRES   REMARKS
CHANUTE        SUNNY     71  37  28 N15G23    30.01S
6HR MIN TEMP:  54; 6HR MAX TEMP:  71;

COFFEYVILLE    SUNNY     73  39  29 N16G25    29.99F
6HR MIN TEMP:  53; 6HR MAX TEMP:  73;

HUTCHINSON     SUNNY     73  36  25 N20G28    30.09S
6HR MIN TEMP:  49; 6HR MAX TEMP:  73;

MEDICINE LODGE   N/A     75  43  31 N15       30.07F
NEWTON         SUNNY     70  36  28 N18G29    30.09S
PARSONS        SUNNY     72  40  31 N17G26    30.01S
6HR MIN TEMP:  46; 6HR MAX TEMP:  73;

WICHITA INTL   SUNNY     73  37  27 N18G25    30.06F
6HR MIN TEMP:  56; 6HR MAX TEMP:  74;

WICHITA JABRA  SUNNY     72  38  29 N21G29    30.06S
6HR MIN TEMP:  52; 6HR MAX TEMP:  72;

WINFIELD         N/A     74  41  30 N14G24    30.30R
6HR MIN TEMP:  48; 6HR MAX TEMP:  74;

$$

KSZ007>012-019>026-033>040-048>060-102>105-041900-
NORTHEAST KANSAS

CITY           SKY/WX    TMP DP  RH WIND       PRES   REMARKS
CONCORDIA      SUNNY     68  36  30 NW14G24   30.09S
6HR MIN TEMP:  49; 6HR MAX TEMP:  68;

EMPORIA        SUNNY     69  35  28 N14G23    30.03F
6HR MIN TEMP:  52; 6HR MAX TEMP:  69;

LAWRENCE       SUNNY     68  40  35 N16G24    30.01F
6HR MIN TEMP:  49; 6HR MAX TEMP:  69;

MANHATTAN      SUNNY     69  35  28 N13G18    30.06F
6HR MIN TEMP:  49; 6HR MAX TEMP:  70;

OLATHE IND     SUNNY     67  38  34 NW16G24   30.00F
6HR MIN TEMP:  51; 6HR MAX TEMP:  68;

OLATHE EXE     SUNNY     67  37  33 N15G22    30.00S
6HR MIN TEMP:  53; 6HR MAX TEMP:  67;

SALINA         SUNNY     72  37  28 N15       30.09S
6HR MIN TEMP:  50; 6HR MAX TEMP:  72;

TOPEKA BILLARD SUNNY     68  38  33 N20       30.03S
6HR MIN TEMP:  51; 6HR MAX TEMP:  69;

TOPEKA FORBES  SUNNY     69  37  30 N14G30    30.02S
6HR MIN TEMP:  53; 6HR MAX TEMP:  70;

$$




USA.gov is the U.S. government's official web portal to all federal, state and local government web resources and services.